LogDate,NO,NO2,NOX,O3,SO2,WIND,WINDS
7/1/2014 0:00,2.2,1,1.9,44.8,3.4,40,0.9
7/1/2014 1:00,2.2,0.9,1.9,44.2,3.3,40,0.8
7/1/2014 2:00,2.2,0.9,1.9,44.4,4,41,0.8
7/1/2014 3:00,2.2,1,1.9,44.2,3.9,41,0.9
7/1/2014 4:00,2.2,1.2,1.9,46.2,2.9,41,0.9
7/1/2014 5:00,2.2,1,1.9,46.7,3,41,0.8
7/1/2014 6:00,2.2,1,1.9,46.7,3.1,41,0.8
7/1/2014 7:00,2.3,1.2,1.9,39.3,3.1,41,0.7
7/1/2014 8:00,2.4,1.2,1.7,28.7,5,43,0.4
7/1/2014 9:00,2.4,1,1.7,21.7,3.9,39,0.2
7/1/2014 10:00,2.4,1.1,1.7,35.9,2.3,42,0.4
7/1/2014 11:00,2.4,1.1,1.7,32.5,3.1,61,0.5
7/1/2014 12:00,2.4,1.2,1.8,52.9,4.8,60,0.4
7/1/2014 13:00,2.4,1.2,1.8,41.8,4.4,59,0.4
7/1/2014 14:00,2.3,1.1,1.8,37.8,4.2,62,0.5
7/1/2014 15:00,2.2,1,1.9,40.1,5.5,61,0.4
7/1/2014 16:00,2.2,1,1.9,36.2,4.6,57,0.2
7/1/2014 17:00,2.2,1.1,1.9,7.1,4,60,0.1
7/1/2014 18:00,2.2,1,1.9,0.8,4.1,57,0.1
7/1/2014 19:00,2.2,1,1.9,0.5,3.9,180,0
7/1/2014 20:00,2.2,1,1.9,3.6,3.8,44,0.1
7/1/2014 21:00,2.2,1,1.9,1,4.3,26,0.1
7/1/2014 22:00,2.2,1,1.9,16,5.4,45,0.2
7/1/2014 23:00,2.2,1,1.9,39.4,5.4,45,0.3
7/2/2014 0:00,2.2,1,1.9,41.9,5.4,46,0.3
7/2/2014 1:00,2.2,1.1,1.9,45.1,5.7,43,0.4
7/2/2014 2:00,2.2,1,1.9,46.7,5.8,40,0.6
7/2/2014 3:00,2.2,1.1,1.9,47.6,6.6,40,0.4
7/2/2014 4:00,2.2,1.1,1.9,32.5,5.6,19,0.1
7/2/2014 5:00,2.2,1,1.9,11.8,7.2,28,0.1
7/2/2014 6:00,2.2,1,1.9,3.7,7.2,32,0.1
7/2/2014 7:00,2.2,1.3,1.9,1.3,7.6,31,0.1
7/2/2014 8:00,2.3,1.1,1.9,2.9,7.3,180,0
7/2/2014 9:00,2.4,1,1.8,6.7,9.1,180,0
7/2/2014 10:00,2.4,1.1,1.7,22.3,6.9,61,0.2
7/2/2014 11:00,2.4,1,1.8,38.9,4.6,60,0.3
7/2/2014 12:00,2.4,1.1,1.8,30.1,5.5,59,0.3
7/2/2014 13:00,2.4,1.1,1.8,35.1,5.4,60,0.3
7/2/2014 14:00,2.3,1.1,1.9,35.4,5.7,60,0.3
7/2/2014 15:00,1,0.4,0.8,33.8,1.3,61,0.3
7/2/2014 16:00,2.2,1,1.9,28.4,3.8,60,0.2
7/2/2014 17:00,2.2,1,1.9,4.9,2.2,53,0.1
7/2/2014 18:00,2.2,1,1.9,0.1,1.9,180,0
7/2/2014 19:00,2.2,1.1,1.9,0.3,1.9,30,0.1
7/2/2014 20:00,2.2,1.2,1.9,0.1,1.9,33,0.1
7/2/2014 21:00,2.2,1,1.9,0.2,2.5,33,0.1
7/2/2014 22:00,2.2,1,1.9,2.4,2.3,180,0
7/2/2014 23:00,2.2,1,1.9,14.5,2.1,36,0.1
7/3/2014 0:00,2.2,1,1.9,21.2,2.8,32,0.1
7/3/2014 1:00,2.2,1.2,1.9,24.5,3.3,45,0.1
7/3/2014 2:00,2.1,1,1.9,14.4,2.9,40,0.1
7/3/2014 3:00,2.2,1.1,1.9,21,3.7,39,0.3
7/3/2014 4:00,2.2,1.2,1.9,32.8,4.3,41,0.3
7/3/2014 5:00,2.2,1.1,1.9,15.9,4.8,29,0.2
7/3/2014 6:00,2.2,1,1.9,13.9,5.7,38,0.1
7/3/2014 7:00,2.2,1,1.9,8.6,6.3,44,0.2
7/3/2014 8:00,2.3,1.2,1.9,8.2,6.8,34,0.1
7/3/2014 9:00,2.4,1.2,1.8,32.1,5.5,38,0.2
7/3/2014 10:00,2.4,1.1,1.8,20.8,7.6,24,0.2
7/3/2014 11:00,2.4,1.1,1.8,31.6,5.6,35,0.2
7/3/2014 12:00,2.4,1.2,1.8,40.2,5.1,55,0.3
7/3/2014 13:00,2.5,1.1,1.8,47.2,5.6,62,0.3
7/3/2014 14:00,2.4,1.1,1.9,45.3,4.4,61,0.4
7/3/2014 15:00,2.2,1.1,1.9,48.4,6.1,58,0.2
7/3/2014 16:00,2.2,1,1.9,18.3,5.2,180,0
7/3/2014 17:00,2.2,1,1.9,5.4,4.1,180,0
7/3/2014 18:00,2.2,1,1.9,5.6,5.7,180,0
7/3/2014 19:00,2.2,1,1.9,5.6,6.4,43,0.1
7/3/2014 20:00,2.2,1.1,1.9,33.2,6,44,0.2
7/3/2014 21:00,2.2,1,1.9,44.6,5.9,44,0.3
7/3/2014 22:00,2.2,1.1,1.9,51.8,7.3,42,0.3
7/3/2014 23:00,2.2,1.1,1.9,51.3,7.4,43,0.2
7/4/2014 0:00,2.2,1.1,1.9,46.2,7.3,35,0.1
7/4/2014 1:00,2.2,1.3,1.9,50.4,6.9,41,0.2
7/4/2014 2:00,2.2,1,1.9,43.4,6.2,35,0.1
7/4/2014 3:00,2.2,1,1.9,47.5,10.7,29,0.1
7/4/2014 4:00,2.2,1,1.9,47.9,11,18,0.1
7/4/2014 5:00,2.2,1.1,1.9,24.1,7.8,26,0.1
7/4/2014 6:00,2.2,1,1.9,3.9,7.2,35,0.1
7/4/2014 7:00,2.2,1,1.9,2.7,8.7,36,0.1
7/4/2014 8:00,2.4,1.2,1.9,2.7,9.9,180,0
7/4/2014 9:00,2.4,1.1,1.8,5.4,7.9,180,0
7/4/2014 10:00,2.5,1.1,1.8,23.1,5.9,46,0.2
7/4/2014 11:00,3,5,4.4,39.6,5.5,57,0.2
7/4/2014 12:00,4.1,9,9.5,62.8,5.1,55,0.3
7/4/2014 13:00,43.9,34.8,75.8,49.6,8.4,62,0.5
7/4/2014 14:00,,,,,,61,0.4
7/4/2014 15:00,15.2,28.6,42.1,51.8,8.3,60,0.3
7/4/2014 16:00,17.4,38.2,53.4,33.3,6.3,55,0.1
7/4/2014 17:00,33,44.7,75.8,14.5,6.1,53,0.1
7/4/2014 18:00,62.8,36.9,98,5.1,5.1,47,0.1
7/4/2014 19:00,102.1,26.8,124,8.4,6,180,0
7/4/2014 20:00,106.7,27.8,132.4,4.6,6.5,180,0
7/4/2014 21:00,29.4,39.5,66.4,8.3,5.4,26,0.1
7/4/2014 22:00,34.6,19.3,50.9,27.1,5.4,45,0.2
7/4/2014 23:00,2.4,9.4,7.8,46,3.9,43,0.5
7/5/2014 0:00,2.2,5,2.1,50.7,3.6,41,0.8
7/5/2014 1:00,2.2,4.7,1.8,48.8,3.6,40,1
7/5/2014 2:00,2.2,4.9,1.9,45.5,3.9,40,0.8
7/5/2014 3:00,2.3,5.5,2.5,43.3,4,37,0.5
7/5/2014 4:00,2.3,4.7,1.9,45.6,3.5,40,1
7/5/2014 5:00,2.3,4.3,2,48.5,3.7,39,1
7/5/2014 6:00,2.3,4,2,48,3.7,39,0.9
7/5/2014 7:00,2.4,5.5,3.6,44.1,3.5,41,0.7
7/5/2014 8:00,5,6.4,8.8,42.6,2.9,41,0.8
7/5/2014 9:00,3.1,7.3,5.9,45.8,2.8,41,0.9
7/5/2014 10:00,3.2,6.5,7.6,49.3,3,42,0.8
7/5/2014 11:00,2.7,5.5,3.6,51.9,2.9,42,0.8
7/5/2014 12:00,3.3,5.3,6.1,51.7,2.7,42,0.7
7/5/2014 13:00,6.9,6.4,8.6,50.1,2.4,35,0.7
7/5/2014 14:00,11.6,5.6,14.6,33.9,2.5,15,1
7/5/2014 15:00,6.6,5.6,10.8,27.2,4.3,16,1.4
7/5/2014 16:00,9.7,5.5,12.6,27.9,3.3,16,1.2
7/5/2014 17:00,9.7,7.6,14.4,25.7,3.4,18,1.2
7/5/2014 18:00,7.4,6.1,12.1,27.4,3.3,16,1
7/5/2014 19:00,5,6.6,10.1,26,3.3,17,0.8
7/5/2014 20:00,4.2,6,7.1,27.4,3,17,0.9
7/5/2014 21:00,2.8,7,7.6,26.5,3,20,0.8
7/5/2014 22:00,2.5,4.7,2.8,29,2.9,19,0.9
7/5/2014 23:00,2.5,4.8,3,27.8,2.9,20,0.8
7/6/2014 0:00,2.3,3.8,2,27.4,3,20,0.8
7/6/2014 1:00,2.2,3.5,1.9,26.1,3.1,23,0.6
7/6/2014 2:00,2.2,4.2,1.9,25.8,3.3,23,0.4
7/6/2014 3:00,2.2,3.7,1.9,26.5,4,22,0.4
7/6/2014 4:00,2.2,4.3,1.9,25.8,4.2,24,0.4
7/6/2014 5:00,6.2,6.5,10.2,21.3,4.1,26,0.2
7/6/2014 6:00,7,9.5,12.7,16.4,4.3,28,0.2
7/6/2014 7:00,10.7,8.2,17.2,19.7,4.2,20,0.4
7/6/2014 8:00,14.7,6.8,19.5,21.5,3.9,23,0.4
7/6/2014 9:00,18.4,8.5,24.5,15,3.9,25,0.2
7/6/2014 10:00,21.2,11.4,30.9,11,4,30,0.1
7/6/2014 11:00,19.1,11.8,29,13.2,3.7,26,0.2
7/6/2014 12:00,28.5,13.1,39.6,7.5,4.1,27,0.1
7/6/2014 13:00,25.5,12.2,36,8.9,3.9,26,0.2
7/6/2014 14:00,21,10,29.1,15.6,3.8,22,0.3
7/6/2014 15:00,20.3,12.2,29.9,12.5,3.5,17,0.3
7/6/2014 16:00,20.8,13.6,32.8,10.4,3.6,23,0.2
7/6/2014 17:00,29.3,13.9,40.5,7,3.7,24,0.3
7/6/2014 18:00,15.6,14.8,29,11,3.6,26,0.2
7/6/2014 19:00,12.6,10.5,21.4,16.3,3.6,24,0.3
7/6/2014 20:00,3.4,8.8,10.3,22.3,3.5,25,0.3
7/6/2014 21:00,5.5,6,9.9,23.4,3.4,22,0.3
7/6/2014 22:00,2.2,6.1,3.7,27.5,3.4,24,0.4
7/6/2014 23:00,2.3,5.5,4,26.3,3.5,27,0.2
7/7/2014 0:00,2.2,3.4,1.8,27.6,3.4,33,0.2
7/7/2014 1:00,2.2,3.1,1.9,26.6,3.3,34,0.2
7/7/2014 2:00,2.2,3.3,1.8,25.6,3.4,31,0.3
7/7/2014 3:00,2.2,4,1.9,24.1,4.2,29,0.4
7/7/2014 4:00,3.2,5.6,5.2,21.3,5.3,25,0.4
7/7/2014 5:00,22.3,8.2,28.3,11.8,4.6,24,0.4
7/7/2014 6:00,42.7,10.1,47.9,7.1,4.8,29,0.3
7/7/2014 7:00,68.9,10.4,72.4,3.2,5.1,25,0.4
7/7/2014 8:00,44.6,12.1,53.7,5.8,4.8,27,0.3
7/7/2014 9:00,39.6,11.1,47.5,10.4,5.2,23,0.5
7/7/2014 10:00,34.5,9.3,41.2,17.3,3.9,19,0.7
7/7/2014 11:00,29.7,7.9,34.6,20.7,3.9,19,0.8
7/7/2014 12:00,26.9,9,31.9,22.1,3.2,20,0.8
7/7/2014 13:00,37.6,9.7,43.6,18.4,3.4,20,0.7
7/7/2014 14:00,30.7,8.5,35,20.2,,21,0.7
7/7/2014 15:00,24.7,11.2,33.7,21.8,4.2,16,0.6
7/7/2014 16:00,33.9,14.8,45.9,14.5,3.9,17,0.8
7/7/2014 17:00,58.2,13.9,66.5,7.9,4.2,20,0.6
7/7/2014 18:00,41.7,13,51,11.5,4.2,20,0.6
7/7/2014 19:00,16.7,12.7,28,15.8,4,24,0.4
7/7/2014 20:00,10.8,9.7,19.1,20.7,3.9,23,0.4
7/7/2014 21:00,3.4,9.2,10.2,23.2,3.7,28,0.3
7/7/2014 22:00,2.2,5.5,2.9,28.6,3.8,30,0.4
7/7/2014 23:00,2.2,4,1.9,29.5,4,29,0.4
7/8/2014 0:00,2.2,4.1,1.9,29.8,4.2,25,0.4
7/8/2014 1:00,2.2,3.6,1.9,30.9,4.1,27,0.4
7/8/2014 2:00,2.1,3.3,1.9,30.7,4.3,25,0.5
7/8/2014 3:00,2.2,3,1.9,31,4.2,22,0.7
7/8/2014 4:00,3,4.4,4.4,27.7,4.2,25,0.4
7/8/2014 5:00,21,9.7,28.8,15.7,4.2,23,0.4
7/8/2014 6:00,47.1,14.6,57,5.8,4.6,26,0.3
7/8/2014 7:00,154.7,3.8,140.1,0.8,5.8,23,0.3
7/8/2014 8:00,76,7,75,8.8,5.3,21,0.5
7/8/2014 9:00,22.2,5.4,25.9,21.6,3.9,22,0.9
7/8/2014 10:00,19.1,6.7,24,24.7,2.8,20,1.1
7/8/2014 11:00,22.8,5.7,26.3,24.1,3.3,19,1.1
7/8/2014 12:00,32.3,7.7,33.5,25.1,3.5,20,1
7/8/2014 13:00,61.1,13.7,61.4,24.7,3.2,18,1
7/8/2014 14:00,44.1,10.4,48.2,25.2,3.6,18,0.9
7/8/2014 15:00,22.8,9.2,29.1,27.1,4.4,15,0.7
7/8/2014 16:00,110.5,14.9,92.2,17,5.7,14,0.5
7/8/2014 17:00,66.7,14.7,73.9,8.2,6.2,16,0.4
7/8/2014 18:00,65.8,15.3,77.2,0.7,4.8,30,0.2
7/8/2014 19:00,59,13,70,0.3,4.6,35,0.1
7/8/2014 20:00,25.7,16.7,40.9,5.2,4.8,31,0.2
7/8/2014 21:00,4.8,14.6,17,16.4,4.7,31,0.3
7/8/2014 22:00,2.2,7.6,4.6,26.8,4.5,32,0.3
7/8/2014 23:00,2.2,8.1,4.9,22.4,4.1,29,0.2
7/9/2014 0:00,3.2,10.9,10.2,17.6,4.3,28,0.2
7/9/2014 1:00,2.2,4.2,2.3,27.6,4.3,31,0.3
7/9/2014 2:00,2.2,4.5,2.4,28.2,4.3,29,0.3
7/9/2014 3:00,2.2,4.3,2,27.7,4,32,0.2
7/9/2014 4:00,8,9.8,14.3,20.9,4,27,0.2
7/9/2014 5:00,82.7,8,77.4,12.7,4.3,28,0.2
7/9/2014 6:00,123.6,9.5,109.3,5.4,4.7,32,0.1
7/9/2014 7:00,162.3,9.3,149.4,2.1,5.2,31,0.1
7/9/2014 8:00,88.9,9.6,87.6,8,5,32,0.1
7/9/2014 9:00,12.2,9.3,19.4,23.7,3.2,35,0.3
7/9/2014 10:00,20.2,6.8,22.9,27.7,2.7,27,0.2
7/9/2014 11:00,18.4,9.1,24.5,28,2.8,26,0.2
7/9/2014 12:00,22.8,9,28.4,28.8,3.5,23,0.2
7/9/2014 13:00,26.6,9.1,31.5,30.1,3.4,24,0.2
7/9/2014 14:00,29.7,14.9,41.6,26.3,6.5,18,0.6
7/9/2014 15:00,26.4,16.3,38.7,31.4,9,13,0.5
7/9/2014 16:00,42.5,12.9,50.2,22.4,6.6,10,0.4
7/9/2014 17:00,72.2,17.2,86.7,3,5.2,31,0.1
7/9/2014 18:00,108.4,8.3,110.9,0.1,5,35,0.1
7/9/2014 19:00,94.2,6.6,96.1,0.5,4.6,32,0.1
7/9/2014 20:00,42.2,16.8,56.8,3,5,30,0.2
7/9/2014 21:00,13.3,16.8,28.3,11.8,4.6,29,0.2
7/9/2014 22:00,5,12,14.3,21.9,4.8,30,0.3
7/9/2014 23:00,2.3,7.3,4.5,29.5,4.9,30,0.3
7/10/2014 0:00,2.7,5.7,4.3,30.9,4.5,27,0.3
7/10/2014 1:00,2.2,5.2,2.1,31.4,4.7,28,0.3
7/10/2014 2:00,2.2,6.2,2.3,29.7,5,27,0.3
7/10/2014 3:00,2.2,8.3,5.2,26.9,6.7,27,0.3
7/10/2014 4:00,2.3,7.9,5,29,5.8,27,0.3
7/10/2014 5:00,10.5,9.9,18.5,21.8,5.8,26,0.4
7/10/2014 6:00,16.6,13.6,27.5,15.6,5.6,27,0.4
7/10/2014 7:00,23.1,12.7,33.9,14,5.4,27,0.4
7/10/2014 8:00,21.7,10.1,29.9,18.9,4.9,26,0.5
7/10/2014 9:00,21.3,8.6,27.4,23.7,4.5,27,0.4
7/10/2014 10:00,20.4,6.7,23.9,24.8,3.2,21,0.7
7/10/2014 11:00,25.6,9.5,30.6,30.3,3.3,21,0.5
7/10/2014 12:00,24.3,8.2,28.9,30.2,3.5,17,0.4
7/10/2014 13:00,20.4,4.9,20.7,34.7,3.7,11,0.5
7/10/2014 14:00,18.6,6.5,21.8,34.3,3.9,10,0.6
7/10/2014 15:00,20.9,8.4,26.9,31.4,4.1,10,0.4
7/10/2014 16:00,31.3,12.5,40.4,22,4.1,9,0.3
7/10/2014 17:00,74.6,11.9,81.8,5.3,4.7,18,0.1
7/10/2014 18:00,78.1,9.4,85.2,0.1,4.9,38,0.1
7/10/2014 19:00,77.3,7.6,82.6,0,4.7,37,0.1
7/10/2014 20:00,55.1,9.7,62.4,0,4.7,38,0.1
7/10/2014 21:00,46.5,11.8,52.3,0,4.7,38,0.1
7/10/2014 22:00,15.9,14.1,28.2,2.5,4.5,39,0.1
7/10/2014 23:00,6.5,10.4,14.5,10.1,4.6,44,0.2
7/11/2014 0:00,2.7,7.5,6.1,15.7,4.5,45,0.3
7/11/2014 1:00,2.8,5.1,4.2,20.2,4.8,43,0.3
7/11/2014 2:00,2.2,3.6,1.9,23.4,4.8,43,0.3
7/11/2014 3:00,2.2,3.7,1.8,24.6,4.9,45,0.3
7/11/2014 4:00,3.2,4.9,4.9,24.6,4.9,45,0.3
7/11/2014 5:00,31.2,9.1,37.3,10,5.1,180,0
7/11/2014 6:00,20.2,9.9,28,15.5,5,43,0.4
7/11/2014 7:00,77,8.5,75.8,11.2,5.7,38,0.3
7/11/2014 8:00,29.6,11.2,38.5,15.6,6,45,0.1
7/11/2014 9:00,6,6.8,11.2,28.6,5.6,46,0.2
7/11/2014 10:00,3.9,7.3,9.4,35.1,8.1,42,0.4
7/11/2014 11:00,12.8,7.6,17.3,35.2,8.1,53,0.2
7/11/2014 12:00,35.7,14.8,47,31.5,7.5,57,0.3
7/11/2014 13:00,29.8,20.6,49.2,37.4,,59,0.4
7/11/2014 14:00,0,22.1,55.9,31.2,8.9,60,0.4
7/11/2014 15:00,0,18.4,49.1,28.2,10.4,62,0.4
7/11/2014 16:00,0,24.9,75.4,17.2,9.7,51,0.2
7/11/2014 17:00,0,16.7,101.3,2.8,6.6,33,0.1
7/11/2014 18:00,0,7.1,133.4,3,6.2,32,0.1
7/11/2014 19:00,0,7.8,106.5,1.3,6.3,32,0.1
7/11/2014 20:00,0,16.5,82.6,0.7,6.8,24,0.1
7/11/2014 21:00,0,19.7,60.5,2.1,6.7,29,0.1
7/11/2014 22:00,0,24.4,49.4,2.4,7.4,29,0.1
7/11/2014 23:00,0,22.2,31.3,8.1,7.9,32,0.1
7/12/2014 0:00,0,24,25.1,12.2,9.3,25,0.1
7/12/2014 1:00,0,22.8,21.9,13,9.6,31,0.1
7/12/2014 2:00,0,18,18.9,19.1,10.2,26,0.1
7/12/2014 3:00,0,15,16.2,25.3,11,26,0.2
7/12/2014 4:00,0,20.5,29.1,15.9,11,38,0.1
7/12/2014 5:00,0,16.5,44.2,12.6,10.6,40,0.1
7/12/2014 6:00,0,17.3,66.3,3.9,9.8,31,0.1
7/12/2014 7:00,0,8.5,142.9,4.4,11.8,28,0.1
7/12/2014 8:00,0,9.4,125.7,4.7,13.7,30,0.1
7/12/2014 9:00,0,17.2,48.4,20.8,12.7,180,0
7/12/2014 10:00,0,23,68.8,21.4,10.7,18,0.3
7/12/2014 11:00,0,17.8,39.2,40,9,15,0.3
7/12/2014 12:00,0,15.7,30.3,52.8,9.4,15,0.5
7/12/2014 13:00,0,16.3,29.2,59.1,9.7,11,0.4
7/12/2014 14:00,0,19.1,29.7,55.9,10,13,0.4
7/12/2014 15:00,0,16.1,33.2,48.5,8.5,14,0.3
7/12/2014 16:00,0,29.2,64.9,30.4,8.5,15,0.2
7/12/2014 17:00,0,35.6,126.6,2.6,8.9,22,0.3
7/12/2014 18:00,0,43.7,91.4,7.4,8.9,23,0.3
7/12/2014 19:00,0,29.6,34.7,29,7.8,26,0.3
7/12/2014 20:00,0,20.3,20,36.9,8,34,0.2
7/12/2014 21:00,0,14.3,14.3,37.5,7.4,43,0.2
7/12/2014 22:00,0,10.2,7.2,44.4,7.5,35,0.3
7/12/2014 23:00,0,16.1,18.5,34.4,7.7,26,0.3
7/13/2014 0:00,0,24.3,26.9,17.2,7.4,23,0.2
7/13/2014 1:00,0,16,13.5,31.3,8.8,29,0.3
7/13/2014 2:00,0,9.4,7.1,34.9,7,26,0.2
7/13/2014 3:00,0,6.5,3.3,35.2,7.3,26,0.3
7/13/2014 4:00,0,5.8,2.9,33.4,7,23,0.5
7/13/2014 5:00,0,7.6,12.1,29,6.9,22,0.6
7/13/2014 6:00,0,14.2,30.7,15.7,6.9,22,0.4
7/13/2014 7:00,0,15.2,28.6,16,7.2,25,0.2
7/13/2014 8:00,0,11.1,14.3,25.7,6.1,30,0.2
7/13/2014 9:00,0,7.9,16.1,31.5,5.2,24,0.4
7/13/2014 10:00,0,7.6,14.6,37,4.8,20,0.5
7/13/2014 11:00,0,6.4,12.9,41,4.7,13,0.4
7/13/2014 12:00,0,5.3,12,43.7,5.1,13,0.4
7/13/2014 13:00,0,5.1,10.4,43.4,5.2,12,0.5
7/13/2014 14:00,0,6.6,10.5,39.4,5.1,11,0.5
7/13/2014 15:00,0,5.6,12.8,36.4,5.2,10,0.5
7/13/2014 16:00,0,5.9,12.9,33.6,4.9,11,0.4
7/13/2014 17:00,0,14,40.6,17.2,5.7,15,0.2
7/13/2014 18:00,0,22.2,46.1,1.9,5.7,35,0.1
7/13/2014 19:00,0,21.3,45.2,1.6,5.6,31,0.1
7/13/2014 20:00,0,19.5,36.3,1.9,5.8,33,0.1
7/13/2014 21:00,0,16.6,26.2,6.6,5.6,38,0.1
7/13/2014 22:00,0,13.9,18.3,6.6,5.6,29,0.1
7/13/2014 23:00,0,10.5,8.9,11.2,5.6,37,0.1
7/14/2014 0:00,0,13.1,19,10.1,5.7,180,0
7/14/2014 1:00,0,11.7,11.5,9.8,5.5,24,0.1
7/14/2014 2:00,0,10.1,7,12.5,5.8,25,0.1
7/14/2014 3:00,0,9.3,7.6,15.1,6.4,24,0.1
7/14/2014 4:00,0,9,5.5,21.7,6.7,32,0.3
7/14/2014 5:00,0,7.2,22.8,22.1,6.8,30,0.3
7/14/2014 6:00,0,8.6,142.6,2.5,7.6,26,0.2
7/14/2014 7:00,0,11.3,78.4,4.2,7.9,30,0.2
7/14/2014 8:00,0,12.9,38.5,14.6,6.7,28,0.2
7/14/2014 9:00,0,10,37.5,21,6,23,0.5
7/14/2014 10:00,0,8.6,26.3,26.1,5.1,18,0.6
7/14/2014 11:00,0,8.1,25.3,28.8,5.3,17,0.5
7/14/2014 12:00,0,5.5,16.8,31.9,4.8,22,0.3
7/14/2014 13:00,0,7,25,32.9,5.1,25,0.4
7/14/2014 14:00,0,8.2,23.1,34.3,5.5,10,0.6
7/14/2014 15:00,0,8.6,25.4,30.8,5.6,11,0.5
7/14/2014 16:00,0,11.7,29.9,22.8,5.7,13,0.5
7/14/2014 17:00,0,15.6,51.5,10.9,6.9,16,0.4
7/14/2014 18:00,0,19.1,58.4,3.3,6.3,22,0.2
7/14/2014 19:00,0,25.5,34.5,5.1,6.5,28,0.1
7/14/2014 20:00,0,18.8,24.6,10.4,6.3,30,0.2
7/14/2014 21:00,0,13,13.6,16.1,5.9,33,0.2
7/14/2014 22:00,0,7.8,5,20.9,5.9,42,0.1
7/14/2014 23:00,0,9.4,9.5,16.4,5.9,34,0.1
7/15/2014 0:00,0,10.8,8.7,15.6,5.8,26,0.1
7/15/2014 1:00,0,6.7,3.3,14.6,5.9,40,0.1
7/15/2014 2:00,0,3.9,1.9,23.2,6,42,0.1
7/15/2014 3:00,0,4.4,2.5,19.5,6.5,43,0.2
7/15/2014 4:00,0,5.5,7.3,20,6.7,42,0.2
7/15/2014 5:00,0,6.3,9.7,18.7,6.6,44,0.2
7/15/2014 6:00,0,7.9,32,12.8,6.8,44,0.3
7/15/2014 7:00,0,8.3,30.7,14.5,7,44,0.3
7/15/2014 8:00,0,7.1,17.9,23.2,6.1,46,0.4
7/15/2014 9:00,0,5.6,6.9,30.6,5.6,47,0.3
7/15/2014 10:00,0,5.9,8.5,36,5.6,54,0.2
7/15/2014 11:00,0,8.2,24.9,33.3,5.6,55,0.3
7/15/2014 12:00,0,10.8,22.4,40.1,6.1,56,0.3
7/15/2014 13:00,18.4,12.2,30.3,39.1,6.3,59,0.4
7/15/2014 14:00,15.4,10.2,23.3,39.1,6.8,62,0.5
7/15/2014 15:00,13.4,9.5,21.1,35.7,6.7,60,0.4
7/15/2014 16:00,14.1,11.3,23.3,33.1,6.5,60,0.4
7/15/2014 17:00,4,18.3,20.1,23.1,6.3,57,0.2
7/15/2014 18:00,2.8,18,17.4,22.9,6.4,53,0.2
7/15/2014 19:00,2.5,11,10.1,28.8,6.2,53,0.2
7/15/2014 20:00,2.3,10.7,9.3,23,6.1,56,0.1
7/15/2014 21:00,6.3,9.5,13.4,8.8,6.1,180,0
7/15/2014 22:00,8,10.2,16.6,5.9,6.2,37,0.1
7/15/2014 23:00,5.9,12.7,17,7.6,6.5,17,0.1
7/16/2014 0:00,2.2,12.3,9.1,22.3,6.7,33,0.1
7/16/2014 1:00,2.2,6.4,2.4,34.1,7.2,40,0.3
7/16/2014 2:00,2.2,6.6,2.7,31.3,7.5,44,0.2
7/16/2014 3:00,2.2,8.1,4.2,23.8,7.6,28,0.1
7/16/2014 4:00,16.1,13.1,25.5,10.6,8.1,32,0.1
7/16/2014 5:00,94.4,11.6,90.1,5.5,8.5,29,0.1
7/16/2014 6:00,271.5,7.4,229.2,6.6,10.9,30,0.1
7/16/2014 7:00,141.5,12.5,134.4,8.8,13.8,34,0.2
7/16/2014 8:00,95.6,13.9,103.1,12.9,9.5,35,0.1
7/16/2014 9:00,67.8,25.2,90.7,17.5,11.6,33,0.1
7/16/2014 10:00,2.9,10.9,11.1,43.7,6.8,45,0.3
7/16/2014 11:00,9.5,10.2,15.4,44.9,6.7,50,0.1
7/16/2014 12:00,11.6,12.6,19.8,51.5,6.8,55,0.2
7/16/2014 13:00,12.8,16,26.3,63.5,7.3,61,0.4
7/16/2014 14:00,18.6,28.3,44.6,56.3,9.1,61,0.4
7/16/2014 15:00,9.5,19.9,27.3,57.1,10.9,61,0.4
7/16/2014 16:00,8.1,32.1,38.3,39.9,10.6,59,0.2
7/16/2014 17:00,3.3,28.1,28.1,41.4,9.1,49,0.1
7/16/2014 18:00,3.6,22.4,23.8,43.2,8.9,48,0.2
7/16/2014 19:00,7.1,23.3,28.4,35.2,9.1,46,0.1
7/16/2014 20:00,19.8,28.4,46.1,15.7,8.5,45,0.1
7/16/2014 21:00,46.7,29.3,74.3,7,8.9,32,0.1
7/16/2014 22:00,3.6,15.2,16,29.7,8.1,39,0.2
7/16/2014 23:00,2.8,19.3,18.6,24.3,7.6,37,0.1
7/17/2014 0:00,2.3,12.8,10.2,33,7.7,30,0.1
7/17/2014 1:00,2.3,6.5,3.8,41.1,7.3,26,0.1
7/17/2014 2:00,2.6,8.9,7,36.5,7.4,20,0.1
7/17/2014 3:00,2.2,8.1,4.5,35.8,8.9,31,0.1
7/17/2014 4:00,2.3,7.1,4.4,37.8,7.9,35,0.3
7/17/2014 5:00,43.4,13.6,49.9,19.8,8.7,31,0.1
7/17/2014 6:00,144.6,13.8,137.6,8.5,10.9,21,0.1
7/17/2014 7:00,123.2,13.3,114,9.3,8.8,23,0.1
7/17/2014 8:00,60.1,12.7,65,18.3,7,31,0.2
7/17/2014 9:00,24.5,12.8,34.5,25.9,6.1,29,0.2
7/17/2014 10:00,9.9,10.5,18,35.3,6,31,0.3
7/17/2014 11:00,8.3,9.5,14.8,43.9,5.9,35,0.3
7/17/2014 12:00,17.9,21.9,37.1,43.2,7.4,28,0.3
7/17/2014 13:00,51.8,41.7,91.2,24.4,9.7,50,0.2
7/17/2014 14:00,25.5,39.7,63.2,35,9.4,58,0.2
7/17/2014 15:00,14.4,39.3,51.9,38.6,11,57,0.1
7/17/2014 16:00,57.1,45.9,100.7,14.6,10.5,50,0.1
7/17/2014 17:00,65.5,43,105.3,5.2,9.3,44,0.1
7/17/2014 18:00,115.2,26.2,134.9,9.1,9.1,34,0.1
7/17/2014 19:00,33.4,37.5,68.9,8.9,8.4,31,0.2
7/17/2014 20:00,29.9,35.9,64,9,8.3,31,0.2
7/17/2014 21:00,20.8,33.7,51,10,9.5,30,0.2
7/17/2014 22:00,11,36.9,46,1.9,10.7,29,0.2
7/17/2014 23:00,12.1,25.6,35.4,10.6,11.2,29,0.3
7/18/2014 0:00,3.2,19.5,18.2,30.8,9,29,0.2
7/18/2014 1:00,2.4,14.5,11.1,38.5,8.5,33,0.2
7/18/2014 2:00,2.9,17.7,15.4,33.1,9.9,21,0.5
7/18/2014 3:00,2.3,6.4,3.7,34.9,8.2,21,0.7
7/18/2014 4:00,3.4,6.4,6.5,32.2,7,20,0.6
7/18/2014 5:00,19.7,12.1,28,19.9,6.9,22,0.4
7/18/2014 6:00,73.9,14.6,81,5.6,7.6,23,0.3
7/18/2014 7:00,65,16.6,77,1.8,8.2,25,0.2
7/18/2014 8:00,65,12.3,68.3,11.2,7.6,18,0.3
7/18/2014 9:00,,,,,,17,0.4
7/18/2014 10:00,41.1,9.9,44.4,20.3,7,16,0.4
7/18/2014 11:00,40.2,10.5,44.8,19.9,6.9,14,0.3
7/18/2014 12:00,25.5,9.1,31.4,23.5,6.9,15,0.4
7/18/2014 13:00,27.9,11.4,34.6,22.8,8.3,16,0.5
7/18/2014 14:00,31.1,12,40,19.4,8.6,36,0.4
7/18/2014 15:00,41.8,11.3,48.6,17.4,8.4,50,0.4
7/18/2014 16:00,61.5,12.4,67.2,10.6,8.1,60,0.4
7/18/2014 17:00,40,14.6,50,10.3,7.9,60,0.2
7/18/2014 18:00,11.9,20.4,30.6,9.4,7.6,56,0.1
7/18/2014 19:00,3.5,17.9,19.4,12.8,7.5,55,0.1
7/18/2014 20:00,2.3,13.1,11.3,19.4,7.4,55,0.1
7/18/2014 21:00,2.2,8.5,5.4,23.7,7.4,51,0.1
7/18/2014 22:00,3.3,9.8,8.8,21.4,7.4,51,0.1
7/18/2014 23:00,2.6,8,6.6,22.7,7.5,47,0.1
7/19/2014 0:00,2.9,7,6.4,22.6,7.6,46,0.1
7/19/2014 1:00,3,8.2,8,18.1,7.6,32,0.1
7/19/2014 2:00,2.6,8.1,7.1,8.9,8,30,0.1
7/19/2014 3:00,2.4,7.1,4.4,7.7,9.3,30,0.1
7/19/2014 4:00,2.2,4.6,3.8,15.8,7,65,0.2
7/19/2014 5:00,4.2,9.7,12,15.1,2,147,0.2
7/19/2014 6:00,12.1,11.2,20.1,13.1,1.9,150,0.3
7/19/2014 7:00,9,12.1,19.5,16.2,2,143,0.3
7/19/2014 8:00,23.5,11.5,32.9,16.3,1.9,125,0.4
7/19/2014 9:00,30.7,10.6,38.6,21.5,1.9,100,0.6
7/19/2014 10:00,22.3,5.7,24.6,28.9,1.9,76,0.6
7/19/2014 11:00,13.9,5.5,17.4,30.2,1.8,65,0.8
7/19/2014 12:00,14.2,5,15.5,32.3,1.9,53,0.8
7/19/2014 13:00,14,5.9,17.6,35.5,1.9,61,0.6
7/19/2014 14:00,12.6,5.4,15.4,38.5,1.9,50,0.5
7/19/2014 15:00,11.5,5.7,15.3,33.6,1.9,51,0.6
7/19/2014 16:00,16.3,7.3,20.8,30.9,1.9,56,0.4
7/19/2014 17:00,30.5,8.3,34.3,22.5,1.9,48,0.2
7/19/2014 18:00,22,20.4,40.9,4.7,1.9,192,0.1
7/19/2014 19:00,64,11,72.7,1,1.9,189,0.1
7/19/2014 20:00,53.6,10.5,62.5,0.2,1.9,180,0.1
7/19/2014 21:00,38.2,15.2,51.8,0.2,1.9,191,0.1
7/19/2014 22:00,25.4,15.7,39.4,1.5,1.9,194,0.1
7/19/2014 23:00,5.1,14.1,15.7,10.8,1.9,199,0.1
7/20/2014 0:00,3.1,14.6,15.1,12.3,1.9,185,0.1
7/20/2014 1:00,2.5,16.3,16.9,7.6,1.9,107,0.1
7/20/2014 2:00,6.1,14,17.8,8.7,1.9,105,0.1
7/20/2014 3:00,7.4,15.5,21.4,5.5,1.9,117,0.1
7/20/2014 4:00,2.5,7.5,5.5,22.7,1.9,214,0.1
7/20/2014 5:00,2.2,6.4,4.7,22.9,1.9,225,0.1
7/20/2014 6:00,64,7.2,61.5,10.7,1.9,234,0.1
7/20/2014 7:00,16.6,7.6,22.1,15.4,1.9,229,0.2
7/20/2014 8:00,7.7,6.6,12.7,23.7,1.9,215,0.3
7/20/2014 9:00,3.6,4.1,5.4,28.4,1.9,225,0.3
7/20/2014 10:00,5.6,3,6,31,1.9,249,0.2
7/20/2014 11:00,5.9,3.3,6.5,34,1.9,231,0.2
7/20/2014 12:00,9.8,3.8,9.5,36.1,1.9,218,0.2
7/20/2014 13:00,12.1,11,21,39,1.9,289,0.4
7/20/2014 14:00,20.1,15.1,33.4,38,2.2,284,0.3
7/20/2014 15:00,11.8,9.6,19.8,42.4,3.4,62,0.5
7/20/2014 16:00,12.6,8.6,19.7,41,2.9,53,0.4
7/20/2014 17:00,21.2,13.8,32.9,25,1.9,63,0.2
7/20/2014 18:00,19.8,24.5,42.6,5.8,1.9,121,0.1
7/20/2014 19:00,7.9,24.6,31,10.7,1.9,131,0.1
7/20/2014 20:00,4.3,18.7,21.1,18.1,1.9,134,0.1
7/20/2014 21:00,2.2,12.2,9.2,24,1.9,150,0.2
7/20/2014 22:00,3.1,7.6,5.6,26.8,1.9,151,0.2
7/20/2014 23:00,2.5,8.2,5.8,23.5,1.9,143,0.1
7/21/2014 0:00,2.2,7.7,5.4,25.2,1.9,147,0.2
7/21/2014 1:00,2.2,6.5,3,26.5,1.9,140,0.1
7/21/2014 2:00,2.2,5.3,2.2,22.7,1.9,171,0.1
7/21/2014 3:00,2.2,4.5,1.9,20.1,1.9,188,0.1
7/21/2014 4:00,9.8,7.1,13,10.6,2,190,0.1
7/21/2014 5:00,28.2,9.2,32.6,11.7,2.1,180,0
7/21/2014 6:00,181.3,2,149.4,0.7,2.7,180,0
7/21/2014 7:00,132.7,4.7,117.1,1.6,3,220,0.1
7/21/2014 8:00,28.4,8.6,35,14.5,1.9,233,0.1
7/21/2014 9:00,9.4,4.5,12.2,27.4,1.9,263,0.2
7/21/2014 10:00,8.4,6,12.1,30.2,1.9,268,0.2
7/21/2014 11:00,20.9,10,28.3,31.5,1.9,294,0.4
7/21/2014 12:00,22.3,10.2,29.6,31.8,1.9,283,0.5
7/21/2014 13:00,24.3,9.3,31,31.5,1.8,294,0.5
7/21/2014 14:00,21.8,8.7,28.4,32.1,3.1,290,0.4
7/21/2014 15:00,34.4,12.2,43.5,27.6,5,305,0.5
7/21/2014 16:00,34,13.7,44.7,25.8,4.4,311,0.4
7/21/2014 17:00,6.4,15.3,19.9,32.1,3.9,303,0.3
7/21/2014 18:00,4,20.8,22.2,20.3,4,272,0.1
7/21/2014 19:00,2.3,14.1,11.4,28.6,4,253,0.1
7/21/2014 20:00,2.2,8.1,4.3,34.7,3.9,259,0.1
7/21/2014 21:00,2.2,5.3,2,36,3.7,252,0.1
7/21/2014 22:00,2.2,5.2,2.1,32.7,3.9,257,0.1
7/21/2014 23:00,2.2,5.6,1.9,29.9,4.1,278,0.1
7/22/2014 0:00,2.3,7.8,4.9,25.5,4.1,308,0.1
7/22/2014 1:00,2.2,7.1,3.5,20.6,4.2,180,0
7/22/2014 2:00,2.2,5.7,2.2,15,4.1,173,0.1
7/22/2014 3:00,2.2,6.6,3.2,17.4,5.1,143,0.2
7/22/2014 4:00,2.2,9.5,7.7,19.3,5.9,148,0.2
7/22/2014 5:00,8.5,11.4,17.9,14.8,6.1,162,0.2
7/22/2014 6:00,22.6,16.8,37.9,8.7,6.3,186,0.1
7/22/2014 7:00,107.8,9.5,106.4,2.2,6.5,180,0
7/22/2014 8:00,54.5,12.7,61.6,7.7,5.4,180,0
7/22/2014 9:00,48.8,15,59.7,11.8,7.4,324,0.1
7/22/2014 10:00,34.5,12.9,44.4,24.7,5.8,281,0.2
7/22/2014 11:00,31.6,12.3,39.8,34.4,5.4,257,0.2
7/22/2014 12:00,17.8,16.1,31.3,45.9,5.6,251,0.2
7/22/2014 13:00,24.8,17.6,39.7,47.3,5.8,292,0.3
7/22/2014 14:00,14.2,19.9,32.1,49.6,6.2,302,0.4
7/22/2014 15:00,25.3,20.6,43.5,43.2,6.5,313,0.5
7/22/2014 16:00,22.7,22.6,43.6,33.2,5.5,300,0.3
7/22/2014 17:00,6.1,23.1,25.7,29.5,4.7,283,0.2
7/22/2014 18:00,23.3,27.2,48.9,7.9,4.7,235,0.2
7/22/2014 19:00,9.5,24.7,32.7,13.9,4.7,242,0.1
7/22/2014 20:00,10.1,19.5,27.3,25.1,5,239,0.1
7/22/2014 21:00,6.4,22.6,26.7,17.2,5,151,0.1
7/22/2014 22:00,6.3,23.3,27.1,12.6,5,140,0.1
7/22/2014 23:00,2.2,18.8,15.6,15.2,4.8,194,0.1
7/23/2014 0:00,2.2,12,8.3,29,5,186,0.1
7/23/2014 1:00,2.2,8.7,4.5,31.4,5.2,201,0.1
7/23/2014 2:00,3,11.9,11.4,20.8,5.2,177,0.1
7/23/2014 3:00,2.2,11.1,7.7,19.4,5.4,164,0.1
7/23/2014 4:00,7.1,15.7,17.8,16.7,7.5,159,0.2
7/23/2014 5:00,16.7,23.4,37.7,14.2,9.1,130,0.4
7/23/2014 6:00,72.1,23.6,91,3.8,12,127,0.4
7/23/2014 7:00,140,12,136.3,4,9.8,110,0.6
7/23/2014 8:00,58.6,19.1,74.8,13.5,6.7,106,0.7
7/23/2014 9:00,24.6,13.6,36.3,29,5.2,81,0.7
7/23/2014 10:00,13.8,12.6,24.5,38.1,5.3,86,0.7
7/23/2014 11:00,22.7,13.2,32.5,41.9,5.1,66,0.5
7/23/2014 12:00,25.9,10.4,32.2,38.8,4.5,54,0.5
7/23/2014 13:00,18.8,7.3,23.1,37.1,4.2,54,0.6